DW4641 Weather Reports


Display with metric or nautical units.
time (UTC)temp
F
wind
direction
speed
MPH
gust
MPH
rain 1hr
in
rain 24hr
in
rain mn
in
humidity
%
barometer
mb
20171023003804 60 240 0.0 0.0 0.00 0.00 0.00 80 1027.3
20171023003301 60 240 0.0 0.0 0.00 0.00 0.00 79 1027.3
20171023002818 61 240 0.0 2.0 0.00 0.00 0.00 79 1027.3
20171023002309 61 240 1.0 2.0 0.00 0.00 0.00 79 1027.3
20171023001808 61 240 0.0 2.0 0.00 0.00 0.00 78 1027.2
20171023001301 61 240 0.0 2.0 0.00 0.00 0.00 78 1027.3
20171023000803 61 240 0.0 2.0 0.00 0.00 0.00 77 1027.2
20171023000325 61 240 0.0 1.0 0.00 0.00 0.00 77 1027.2
20171022235819 62 240 0.0 3.0 0.00 0.00 0.00 75 1027.2
20171022235302 62 240 1.0 3.0 0.00 0.00 0.00 74 1027.1
20171022234802 62 240 0.0 0.0 0.00 0.00 0.00 73 1027.1
20171022234318 62 240 0.0 0.0 0.00 0.00 0.00 72 1027.1
20171022233811 62 240 0.0 3.0 0.00 0.00 0.00 71 1027.1
20171022233309 62 240 0.0 3.0 0.00 0.00 0.00 71 1027.1
20171022232806 62 240 1.0 3.0 0.00 0.00 0.00 73 1027.0
20171022232307 62 242 1.0 3.0 0.00 0.00 0.00 75 1026.9
20171022231804 61 242 2.0 3.0 0.00 0.00 0.00 76 1026.9
20171022231319 61 242 1.0 2.0 0.00 0.00 0.00 79 1026.9
20171022230808 61 242 0.0 0.0 0.00 0.00 0.00 80 1026.9
20171022230329 61 242 0.0 0.0 0.00 0.00 0.00 80 1026.9
20171022225800 62 242 0.0 0.0 0.00 0.00 0.00 81 1026.9
20171022225301 62 242 0.0 0.0 0.00 0.00 0.00 81 1026.9
20171022224802 62 242 0.0 0.0 0.00 0.00 0.00 82 1027.0
20171022224318 63 242 0.0 0.0 0.00 0.00 0.00 82 1026.9
20171022223811 63 242 0.0 0.0 0.00 0.00 0.00 83 1026.9
20171022223307 63 242 0.0 0.0 0.00 0.00 0.00 83 1026.8
20171022222807 64 242 0.0 0.0 0.00 0.00 0.00 82 1026.7
20171022222307 64 242 0.0 0.0 0.00 0.00 0.00 82 1026.7
20171022221806 65 242 0.0 0.0 0.00 0.00 0.00 82 1026.7
20171022221302 65 242 0.0 0.0 0.00 0.00 0.00 82 1026.7
20171022220815 65 242 0.0 0.0 0.00 0.00 0.00 82 1026.7
20171022220330 66 242 0.0 0.0 0.00 0.00 0.00 81 1026.7
20171022215802 66 242 0.0 0.0 0.00 0.00 0.00 80 1026.7
20171022215301 66 242 0.0 0.0 0.00 0.00 0.00 80 1026.7
20171022214800 67 242 0.0 0.0 0.00 0.00 0.00 79 1026.7
20171022214317 67 242 0.0 0.0 0.00 0.00 0.00 79 1026.7
20171022213803 67 242 0.0 0.0 0.00 0.00 0.00 78 1026.7
20171022213301 67 242 0.0 1.0 0.00 0.00 0.00 78 1026.8
20171022212802 68 242 0.0 1.0 0.00 0.00 0.00 77 1026.7
20171022212302 68 242 0.0 1.0 0.00 0.00 0.00 76 1026.7
20171022211803 68 242 0.0 2.0 0.00 0.00 0.00 75 1026.7
20171022211318 69 242 0.0 1.0 0.00 0.00 0.00 74 1026.7
20171022210810 69 242 0.0 1.0 0.00 0.00 0.00 72 1026.7
20171022210332 69 242 0.0 1.0 0.00 0.00 0.00 68 1026.7
20171022205801 70 242 0.0 2.0 0.00 0.00 0.00 67 1026.7
20171022205302 70 242 0.0 2.0 0.00 0.00 0.00 65 1026.7
20171022204803 70 242 0.0 3.0 0.00 0.00 0.00 63 1026.7
20171022204316 71 242 1.0 3.0 0.00 0.00 0.00 61 1026.7
20171022203804 71 242 0.0 2.0 0.00 0.00 0.00 58 1026.7
20171022203300 71 242 1.0 3.0 0.00 0.00 0.00 56 1026.7
20171022202803 72 242 1.0 3.0 0.00 0.00 0.00 54 1026.7
20171022202303 72 242 1.0 3.0 0.00 0.00 0.00 54 1026.7
20171022201804 73 242 1.0 3.0 0.00 0.00 0.00 53 1026.7
20171022201319 73 240 0.0 4.0 0.00 0.00 0.00 50 1026.7
20171022200815 73 240 1.0 4.0 0.00 0.00 0.00 48 1026.8
20171022200337 74 220 1.0 4.0 0.00 0.00 0.00 47 1026.8
20171022195818 74 220 0.0 7.0 0.00 0.00 0.00 46 1026.9
20171022195318 74 221 3.0 8.0 0.00 0.00 0.00 44 1026.9
20171022194800 74 227 3.0 8.0 0.00 0.00 0.00 42 1027.0
20171022194317 74 232 3.0 6.0 0.00 0.00 0.00 43 1026.9
20171022193805 74 195 3.0 6.0 0.00 0.00 0.00 42 1027.0
20171022193300 74 221 3.0 6.0 0.00 0.00 0.00 40 1026.9
20171022192802 74 193 1.0 7.0 0.00 0.00 0.00 40 1027.0
20171022192302 74 199 3.0 7.0 0.00 0.00 0.00 39 1027.0
20171022191804 74 188 2.0 6.0 0.00 0.00 0.00 39 1027.0
20171022191319 74 183 2.0 6.0 0.00 0.00 0.00 40 1026.9
20171022190807 74 197 1.0 7.0 0.00 0.00 0.00 39 1026.9
20171022190329 74 245 3.0 7.0 0.00 0.00 0.00 38 1026.9
20171022185800 75 190 2.0 6.0 0.00 0.00 0.00 39 1026.8
20171022185318 75 180 4.0 7.0 0.00 0.00 0.00 37 1026.8
20171022184815 75 200 5.0 7.0 0.00 0.00 0.00 38 1026.7
20171022184315 75 208 4.0 7.0 0.00 0.00 0.00 40 1026.8
20171022183815 75 178 4.0 9.0 0.00 0.00 0.00 40 1026.8
20171022183312 75 221 4.0 7.0 0.00 0.00 0.00 39 1026.8
20171022182811 75 219 4.0 7.0 0.00 0.00 0.00 38 1026.9
20171022182311 74 204 2.0 6.0 0.00 0.00 0.00 41 1026.9
20171022181809 74 214 4.0 8.0 0.00 0.00 0.00 39 1027.0
20171022181300 74 189 1.0 8.0 0.00 0.00 0.00 40 1027.0
20171022180803 74 201 2.0 6.0 0.00 0.00 0.00 38 1027.0
20171022180311 74 200 2.0 6.0 0.00 0.00 0.00 40 1027.1
20171022175801 73 212 3.0 6.0 0.00 0.00 0.00 42 1027.2
20171022175301 73 221 3.0 7.0 0.00 0.00 0.00 41 1027.2
20171022174800 73 214 2.0 7.0 0.00 0.00 0.00 41 1027.3
20171022174317 73 215 3.0 7.0 0.00 0.00 0.00 42 1027.3
20171022173806 73 236 5.0 7.0 0.00 0.00 0.00 42 1027.4
20171022173302 73 192 2.0 5.0 0.00 0.00 0.00 46 1027.4
20171022172801 72 193 1.0 5.0 0.00 0.00 0.00 47 1027.4
20171022172302 71 192 3.0 5.0 0.00 0.00 0.00 46 1027.5
20171022171804 71 197 3.0 5.0 0.00 0.00 0.00 46 1027.5
20171022171318 71 202 0.0 5.0 0.00 0.00 0.00 47 1027.6
20171022170816 71 202 2.0 5.0 0.00 0.00 0.00 48 1027.7
20171022170336 70 217 0.0 4.0 0.00 0.00 0.00 48 1027.7
20171022165802 70 218 3.0 4.0 0.00 0.00 0.00 49 1027.7
20171022165302 70 217 1.0 6.0 0.00 0.00 0.00 50 1027.8
20171022164814 70 213 3.0 6.0 0.00 0.00 0.00 49 1027.8
20171022164314 69 210 2.0 5.0 0.00 0.00 0.00 50 1027.9
20171022163806 69 213 3.0 6.0 0.00 0.00 0.00 48 1028.0
20171022163302 69 207 3.0 6.0 0.00 0.00 0.00 50 1028.0
20171022162802 69 188 2.0 4.0 0.00 0.00 0.00 52 1028.0
20171022162303 69 189 1.0 3.0 0.00 0.00 0.00 50 1028.0
20171022161803 69 189 0.0 5.0 0.00 0.00 0.00 54 1028.1
20171022161318 68 189 3.0 5.0 0.00 0.00 0.00 54 1028.1
20171022160802 68 204 3.0 5.0 0.00 0.00 0.00 55 1028.1
20171022160346 68 78 0.0 4.0 0.00 0.00 0.00 52 1028.0
20171022155817 68 78 2.0 5.0 0.00 0.00 0.00 52 1027.9
20171022155318 67 209 2.0 5.0 0.00 0.00 0.00 50 1028.0
20171022154815 67 207 0.0 2.0 0.00 0.00 0.00 53 1028.1
20171022154316 67 207 1.0 3.0 0.00 0.00 0.00 51 1028.1
20171022153803 67 213 1.0 3.0 0.00 0.00 0.00 53 1028.2
20171022153300 66 213 0.0 3.0 0.00 0.00 0.00 53 1028.3
20171022152802 66 213 1.0 3.0 0.00 0.00 0.00 52 1028.3
20171022152301 66 213 1.0 3.0 0.00 0.00 0.00 57 1028.2
20171022151802 65 213 0.0 2.0 0.00 0.00 0.00 58 1028.2
20171022151318 65 213 0.0 2.0 0.00 0.00 0.00 59 1028.2
20171022150759 65 213 1.0 2.0 0.00 0.00 0.00 60 1028.3
20171022150303 64 213 0.0 2.0 0.00 0.00 0.00 60 1028.3
20171022145817 64 213 0.0 1.0 0.00 0.00 0.00 61 1028.4
20171022145316 64 213 0.0 2.0 0.00 0.00 0.00 60 1028.4
20171022144813 63 213 0.0 3.0 0.00 0.00 0.00 61 1028.5
20171022144315 63 213 1.0 3.0 0.00 0.00 0.00 61 1028.6
20171022143812 63 213 1.0 2.0 0.00 0.00 0.00 61 1028.5
20171022143308 63 213 1.0 3.0 0.00 0.00 0.00 61 1028.6
20171022142809 63 213 1.0 3.0 0.00 0.00 0.00 63 1028.6
20171022142310 62 213 1.0 3.0 0.00 0.00 0.00 65 1028.6
20171022141807 62 213 1.0 3.0 0.00 0.00 0.00 65 1028.6
20171022141309 62 213 1.0 3.0 0.00 0.00 0.00 65 1028.6
20171022140803 61 213 1.0 2.0 0.00 0.00 0.00 65 1028.6
20171022140315 61 213 1.0 2.0 0.00 0.00 0.00 69 1028.6
20171022135807 61 213 1.0 2.0 0.00 0.00 0.00 69 1028.4
20171022135308 60 213 1.0 2.0 0.00 0.00 0.00 72 1028.5
20171022134800 59 213 0.0 2.0 0.00 0.00 0.00 73 1028.6
20171022134315 59 213 1.0 2.0 0.00 0.00 0.00 74 1028.6
20171022133809 58 213 0.0 0.0 0.00 0.00 0.00 74 1028.6
20171022133306 57 213 0.0 0.0 0.00 0.00 0.00 76 1028.7
20171022132805 57 213 0.0 0.0 0.00 0.00 0.00 77 1028.7
20171022132303 56 213 0.0 0.0 0.00 0.00 0.00 77 1028.7
20171022131803 56 213 0.0 0.0 0.00 0.00 0.00 79 1028.6
20171022131259 55 213 0.0 0.0 0.00 0.00 0.00 80 1028.6
20171022130803 54 213 0.0 0.0 0.00 0.00 0.00 81 1028.7
20171022130325 54 213 0.0 0.0 0.00 0.00 0.00 82 1028.8
20171022125815 53 213 0.0 0.0 0.00 0.00 0.00 84 1028.7
20171022125317 52 213 0.0 0.0 0.00 0.00 0.00 86 1028.7
20171022124815 51 213 0.0 0.0 0.00 0.00 0.00 88 1028.6
20171022124315 50 213 0.0 0.0 0.00 0.00 0.00 90 1028.6
20171022123800 49 213 0.0 0.0 0.00 0.00 0.00 91 1028.5
20171022123318 48 213 0.0 0.0 0.00 0.00 0.00 91 1028.4
20171022122800 48 213 0.0 0.0 0.00 0.00 0.00 92 1028.4
20171022122300 47 213 0.0 0.0 0.00 0.00 0.00 92 1028.4
20171022121801 47 213 0.0 0.0 0.00 0.00 0.00 92 1028.4
20171022121318 47 213 0.0 0.0 0.00 0.00 0.00 92 1028.4
20171022120803 46 213 0.0 0.0 0.00 0.00 0.00 92 1028.3
20171022120325 46 213 0.0 0.0 0.00 0.00 0.00 91 1028.2
20171022115817 46 213 0.0 0.0 0.00 0.00 0.00 91 1028.1
20171022115300 46 213 0.0 0.0 0.00 0.00 0.00 91 1028.0
20171022114801 46 213 0.0 0.0 0.00 0.00 0.00 91 1027.9
20171022114315 46 213 0.0 0.0 0.00 0.00 0.00 91 1027.9
20171022113801 46 213 0.0 0.0 0.00 0.00 0.00 91 1027.7
20171022113317 46 213 0.0 0.0 0.00 0.00 0.00 91 1027.7
20171022112819 46 213 0.0 0.0 0.00 0.00 0.00 91 1027.6
20171022112300 46 213 0.0 0.0 0.00 0.00 0.00 91 1027.6
20171022111802 46 213 0.0 0.0 0.00 0.00 0.00 91 1027.5
20171022111318 46 213 0.0 0.0 0.00 0.00 0.00 91 1027.4
20171022110804 46 213 0.0 0.0 0.00 0.00 0.00 90 1027.3
20171022110327 46 213 0.0 0.0 0.00 0.00 0.00 90 1027.2
20171022105817 46 213 0.0 0.0 0.00 0.00 0.00 90 1027.2
20171022105317 46 213 0.0 0.0 0.00 0.00 0.00 90 1027.2
20171022104814 46 213 0.0 0.0 0.00 0.00 0.00 90 1027.1
20171022104315 46 213 0.0 0.0 0.00 0.00 0.00 90 1027.1
20171022103759 46 213 0.0 0.0 0.00 0.00 0.00 91 1027.1
20171022103314 46 213 0.0 0.0 0.00 0.00 0.00 91 1027.0
20171022102817 46 213 0.0 0.0 0.00 0.00 0.00 91 1027.1
20171022102319 46 213 0.0 0.0 0.00 0.00 0.00 91 1027.0
20171022101801 46 213 0.0 0.0 0.00 0.00 0.00 91 1027.1
20171022101317 46 213 0.0 0.0 0.00 0.00 0.00 91 1027.1
20171022100802 46 213 0.0 0.0 0.00 0.00 0.00 90 1027.1
20171022100324 46 213 0.0 0.0 0.00 0.00 0.00 90 1027.1
20171022095817 46 213 0.0 0.0 0.00 0.00 0.00 90 1027.0
20171022095317 46 213 0.0 0.0 0.00 0.00 0.00 90 1026.9
20171022094813 46 213 0.0 0.0 0.00 0.00 0.00 90 1026.9
20171022094315 46 213 0.0 0.0 0.00 0.00 0.00 90 1026.9
20171022093800 46 213 0.0 0.0 0.00 0.00 0.00 90 1026.9
20171022093315 46 213 0.0 0.0 0.00 0.00 0.00 90 1026.8
20171022092818 46 213 0.0 0.0 0.00 0.00 0.00 89 1026.8
20171022092259 47 213 0.0 0.0 0.00 0.00 0.00 90 1026.9
20171022091800 47 213 0.0 0.0 0.00 0.00 0.00 89 1026.8
20171022091317 47 213 0.0 0.0 0.00 0.00 0.00 89 1026.7
20171022090815 47 213 0.0 0.0 0.00 0.00 0.00 90 1026.7
20171022090320 47 213 0.0 0.0 0.00 0.00 0.00 90 1026.7
20171022085815 47 213 0.0 0.0 0.00 0.00 0.00 90 1026.7
20171022085316 47 213 0.0 0.0 0.00 0.00 0.00 89 1026.6
20171022084759 47 213 0.0 0.0 0.00 0.00 0.00 89 1026.5
20171022084316 47 213 0.0 0.0 0.00 0.00 0.00 89 1026.5
20171022083759 47 213 0.0 0.0 0.00 0.00 0.00 89 1026.5
20171022083317 47 213 0.0 0.0 0.00 0.00 0.00 89 1026.4
20171022082800 47 213 0.0 0.0 0.00 0.00 0.00 90 1026.4
20171022082300 47 213 0.0 0.0 0.00 0.00 0.00 89 1026.4
20171022081803 47 213 0.0 0.0 0.00 0.00 0.00 90 1026.3
20171022081319 47 213 0.0 0.0 0.00 0.00 0.00 89 1026.4
20171022080806 47 213 0.0 0.0 0.00 0.00 0.00 89 1026.2
20171022080310 47 213 0.0 0.0 0.00 0.00 0.00 89 1026.4
20171022075818 47 213 0.0 0.0 0.00 0.00 0.00 89 1026.2
20171022075319 47 213 0.0 0.0 0.00 0.00 0.00 89 1026.3
20171022074801 47 213 0.0 0.0 0.00 0.00 0.00 89 1026.3
20171022074318 47 213 0.0 0.0 0.00 0.00 0.00 89 1026.4
20171022073801 47 213 0.0 0.0 0.00 0.00 0.00 89 1026.4
20171022073320 47 213 0.0 0.0 0.00 0.00 0.00 89 1026.3
20171022072818 47 213 0.0 0.0 0.00 0.00 0.00 89 1026.2
20171022072300 48 213 0.0 0.0 0.00 0.00 0.00 89 1026.2
20171022071801 48 213 0.0 0.0 0.00 0.00 0.00 89 1026.3
20171022071317 48 213 0.0 0.0 0.00 0.00 0.00 89 1026.3
20171022070811 48 213 0.0 0.0 0.00 0.00 0.00 89 1026.2
20171022070331 48 213 0.0 0.0 0.00 0.00 0.00 88 1026.2
20171022065815 48 213 0.0 0.0 0.00 0.00 0.00 88 1026.3
20171022065316 48 213 0.0 0.0 0.00 0.00 0.00 88 1026.3
20171022064813 49 213 0.0 0.0 0.00 0.00 0.00 87 1026.3
20171022064315 49 213 0.0 0.0 0.00 0.00 0.00 88 1026.4
20171022063803 49 213 0.0 0.0 0.00 0.00 0.00 87 1026.4
20171022063259 49 213 0.0 0.0 0.00 0.00 0.00 87 1026.4
20171022062801 49 213 0.0 0.0 0.00 0.00 0.00 87 1026.5
20171022062302 49 213 0.0 0.0 0.00 0.00 0.00 87 1026.5
20171022061802 49 213 0.0 0.0 0.00 0.00 0.00 87 1026.5
20171022061317 49 213 0.0 0.0 0.00 0.00 0.00 87 1026.4
20171022060814 49 213 0.0 0.0 0.00 0.00 0.00 87 1026.5
20171022060352 49 213 0.0 0.0 0.00 0.00 0.00 87 1026.4
20171022055816 49 213 0.0 0.0 0.00 0.00 0.00 87 1026.4
20171022055315 50 213 0.0 0.0 0.00 0.00 0.00 87 1026.4
20171022054813 50 213 0.0 0.0 0.00 0.00 0.00 87 1026.3
20171022054314 50 213 0.0 0.0 0.00 0.00 0.00 87 1026.3
20171022053800 50 213 0.0 0.0 0.00 0.00 0.00 87 1026.4
20171022053316 50 213 0.0 0.0 0.00 0.00 0.00 86 1026.3
20171022052759 50 213 0.0 0.0 0.00 0.00 0.00 86 1026.4
20171022052301 50 213 0.0 0.0 0.00 0.00 0.00 86 1026.4
20171022051802 50 213 0.0 0.0 0.00 0.00 0.00 86 1026.4
20171022051318 51 213 0.0 0.0 0.00 0.00 0.00 86 1026.5
20171022050816 51 213 0.0 0.0 0.00 0.00 0.00 86 1026.4
20171022050327 51 213 0.0 0.0 0.00 0.00 0.00 86 1026.4
20171022045815 51 213 0.0 0.0 0.00 0.00 0.00 85 1026.4
20171022045315 51 213 0.0 0.0 0.00 0.00 0.00 85 1026.3
20171022044813 51 213 0.0 0.0 0.00 0.00 0.00 85 1026.3
20171022044314 51 213 0.0 0.0 0.00 0.00 0.00 85 1026.3
20171022043759 52 213 0.0 0.0 0.00 0.00 0.00 85 1026.2
20171022043314 52 213 0.0 0.0 0.00 0.00 0.00 85 1026.2
20171022042817 52 213 0.0 0.0 0.00 0.00 0.00 84 1026.2
20171022042259 52 213 0.0 0.0 0.00 0.00 0.00 84 1026.1
20171022041800 52 213 0.0 0.0 0.00 0.00 0.00 84 1026.2
20171022041317 52 213 0.0 0.0 0.00 0.00 0.00 84 1026.1
20171022040807 52 213 0.0 0.0 0.00 0.00 0.00 84 1026.0
20171022040330 52 213 0.0 0.0 0.00 0.00 0.00 84 1026.0
20171022035800 52 213 0.0 0.0 0.00 0.00 0.00 83 1026.1
20171022035259 52 213 0.0 0.0 0.00 0.00 0.00 83 1026.1
20171022034759 53 213 0.0 0.0 0.00 0.00 0.00 83 1026.2
20171022034315 53 213 0.0 0.0 0.00 0.00 0.00 82 1026.2
20171022033802 53 213 0.0 0.0 0.00 0.00 0.00 82 1026.2
20171022033259 53 213 0.0 0.0 0.00 0.00 0.00 82 1026.2
20171022032800 53 213 0.0 0.0 0.00 0.00 0.00 82 1026.2
20171022032301 53 213 0.0 0.0 0.00 0.00 0.00 82 1026.2
20171022031759 53 213 0.0 0.0 0.00 0.00 0.00 81 1026.2
20171022031317 54 213 0.0 0.0 0.00 0.00 0.00 81 1026.2
20171022030811 54 213 0.0 0.0 0.00 0.00 0.00 81 1026.2
20171022030332 54 213 0.0 0.0 0.00 0.00 0.00 81 1026.2
20171022025801 54 213 0.0 0.0 0.00 0.00 0.00 81 1026.2
20171022025259 54 213 0.0 0.0 0.00 0.00 0.00 80 1026.2
20171022024758 54 213 0.0 0.0 0.00 0.00 0.00 80 1026.2
20171022024314 54 213 0.0 0.0 0.00 0.00 0.00 80 1026.2
20171022023818 55 213 0.0 0.0 0.00 0.00 0.00 79 1026.2
20171022023313 55 213 0.0 0.0 0.00 0.00 0.00 79 1026.1
20171022022815 55 213 0.0 0.0 0.00 0.00 0.00 78 1026.2
20171022022308 55 213 0.0 0.0 0.00 0.00 0.00 78 1026.2
20171022021806 56 213 0.0 0.0 0.00 0.00 0.00 78 1026.2
20171022021258 56 213 0.0 0.0 0.00 0.00 0.00 77 1026.2
20171022020800 56 213 0.0 0.0 0.00 0.00 0.00 77 1026.2
20171022020354 56 213 0.0 0.0 0.00 0.00 0.00 77 1026.1
20171022015817 57 213 0.0 0.0 0.00 0.00 0.00 76 1026.1
20171022015317 57 213 0.0 0.0 0.00 0.00 0.00 75 1026.2
20171022014759 57 213 0.0 0.0 0.00 0.00 0.00 74 1026.1
20171022014314 58 213 0.0 0.0 0.00 0.00 0.00 73 1026.1
20171022013807 58 213 0.0 0.0 0.00 0.00 0.00 72 1026.1
20171022013301 58 213 0.0 0.0 0.00 0.00 0.00 72 1026.0
20171022012802 59 213 0.0 0.0 0.00 0.00 0.00 71 1026.0
20171022012301 59 213 0.0 0.0 0.00 0.00 0.00 70 1026.1
20171022011802 59 213 0.0 0.0 0.00 0.00 0.00 71 1026.0
20171022011318 59 213 0.0 0.0 0.00 0.00 0.00 70 1026.0
20171022010814 59 213 0.0 0.0 0.00 0.00 0.00 71 1026.0
20171022010333 59 213 0.0 2.0 0.00 0.00 0.00 71 1026.0
20171022005802 59 213 0.0 2.0 0.00 0.00 0.00 69 1026.0
20171022005303 59 213 1.0 2.0 0.00 0.00 0.00 68 1026.0
20171022004803 60 213 1.0 2.0 0.00 0.00 0.00 67 1025.9
20171022004316 60 213 1.0 1.0 0.00 0.00 0.00 66 1025.8